Hourly Weather Allende

Today, 3 March, Wednesday

Time Temperature Precipitation Wind Pressure Humidity
00:00 +13°C° 0 mm 1 mps 724 mmHg 59%
01:00 +13°C° 0 mm 1 mps 724 mmHg 61%
02:00 +13°C° 0 mm 1 mps 724 mmHg 63%
03:00 +13°C° 0 mm 1 mps 724 mmHg 63%
04:00 +13°C° 0 mm 1 mps 724 mmHg 64%
05:00 +13°C° 0 mm 1 mps 724 mmHg 64%
06:00 +15°C° 0 mm 1 mps 724 mmHg 58%
07:00 +18°C° 0 mm 1 mps 725 mmHg 53%
08:00 +20°C° 0 mm 1 mps 725 mmHg 47%
09:00 +20°C° 0 mm 2 mps 725 mmHg 43%
10:00 +23°C° 0 mm 2 mps 725 mmHg 39%
11:00 +25°C° 0 mm 3 mps 725 mmHg 36%
12:00 +26°C° 0 mm 3 mps 724 mmHg 34%
13:00 +27°C° 0 mm 3 mps 723 mmHg 33%
14:00 +28°C° 0 mm 3 mps 723 mmHg 32%
15:00 +27°C° 0 mm 3 mps 722 mmHg 35%
16:00 +26°C° 0 mm 3 mps 722 mmHg 38%
17:00 +25°C° 0 mm 3 mps 722 mmHg 41%
18:00 +23°C° 0 mm 2 mps 723 mmHg 48%
19:00 +20°C° 0 mm 2 mps 723 mmHg 54%
20:00 +19°C° 0 mm 1 mps 724 mmHg 61%
21:00 +19°C° 0 mm 1 mps 724 mmHg 64%
22:00 +18°C° 0 mm 1 mps 724 mmHg 67%
23:00 +18°C° 0 mm 1 mps 724 mmHg 70%

Tomorrow, 4 March, Thursday

Time Temperature Precipitation Wind Pressure Humidity
00:00 +18°C° 0 mm 1 mps 724 mmHg 72%
01:00 +16°C° 0 mm 1 mps 724 mmHg 73%
02:00 +16°C° 0 mm 1 mps 724 mmHg 75%
03:00 +16°C° 0 mm 1 mps 723 mmHg 75%
04:00 +15°C° 0 mm 1 mps 723 mmHg 75%
05:00 +15°C° 0 mm 1 mps 723 mmHg 76%
06:00 +18°C° 0 mm 1 mps 724 mmHg 70%
07:00 +20°C° 0 mm 1 mps 724 mmHg 64%
08:00 +22°C° 0 mm 1 mps 724 mmHg 58%
09:00 +24°C° 0 mm 2 mps 724 mmHg 53%
10:00 +26°C° 0 mm 2 mps 724 mmHg 48%
11:00 +28°C° 0 mm 3 mps 723 mmHg 43%
12:00 +29°C° 0 mm 3 mps 723 mmHg 41%
13:00 +30°C° 0 mm 3 mps 722 mmHg 39%
14:00 +32°C° 0 mm 4 mps 721 mmHg 37%
15:00 +30°C° 0 mm 4 mps 721 mmHg 41%
16:00 +29°C° 0 mm 3 mps 721 mmHg 45%
17:00 +28°C° 0 mm 3 mps 720 mmHg 50%
18:00 +26°C° 0 mm 3 mps 721 mmHg 59%
19:00 +24°C° 0 mm 2 mps 721 mmHg 68%
20:00 +22°C° 0 mm 1 mps 721 mmHg 76%
21:00 +22°C° 0 mm 1 mps 721 mmHg 74%
22:00 +21°C° 0 mm 2 mps 721 mmHg 71%
23:00 +21°C° 0 mm 2 mps 720 mmHg 68%

Day after tomorrow, 5 March, Friday

Time Temperature Precipitation Wind Pressure Humidity
00:00 +20°C° 0 mm 2 mps 720 mmHg 69%
01:00 +20°C° 0 mm 2 mps 720 mmHg 69%
02:00 +20°C° 0 mm 2 mps 719 mmHg 70%
03:00 +20°C° 0 mm 2 mps 719 mmHg 67%
04:00 +20°C° 0 mm 2 mps 720 mmHg 64%
05:00 +20°C° 0 mm 2 mps 720 mmHg 61%
06:00 +23°C° 0 mm 2 mps 721 mmHg 59%
07:00 +24°C° 0 mm 3 mps 722 mmHg 58%
08:00 +25°C° 0 mm 3 mps 723 mmHg 56%
09:00 +26°C° 0 mm 3 mps 723 mmHg 48%
10:00 +28°C° 0 mm 4 mps 723 mmHg 41%
11:00 +29°C° 0 mm 5 mps 723 mmHg 33%
12:00 +29°C° 0 mm 5 mps 722 mmHg 31%
13:00 +30°C° 0 mm 5 mps 722 mmHg 29%
14:00 +30°C° 0 mm 5 mps 721 mmHg 27%
15:00 +29°C° 0 mm 4 mps 721 mmHg 27%
16:00 +27°C° 0 mm 4 mps 721 mmHg 27%
17:00 +26°C° 0 mm 4 mps 721 mmHg 28%
18:00 +24°C° 0 mm 3 mps 722 mmHg 31%
19:00 +20°C° 0 mm 2 mps 723 mmHg 34%
20:00 +19°C° 0 mm 1 mps 723 mmHg 38%
21:00 +18°C° 0 mm 2 mps 724 mmHg 38%
22:00 +18°C° 0 mm 2 mps 724 mmHg 38%
23:00 +17°C° 0 mm 2 mps 724 mmHg 38%

6 March, Saturday

Time Temperature Precipitation Wind Pressure Humidity
00:00 +17°C° 0 mm 2 mps 725 mmHg 39%
01:00 +17°C° 0 mm 2 mps 725 mmHg 41%
02:00 +17°C° 0 mm 2 mps 725 mmHg 42%
03:00 +16°C° 0 mm 2 mps 725 mmHg 48%
04:00 +15°C° 0 mm 2 mps 725 mmHg 54%
05:00 +14°C° 0 mm 2 mps 725 mmHg 61%
06:00 +15°C° 0 mm 2 mps 726 mmHg 57%
07:00 +17°C° 0 mm 3 mps 726 mmHg 54%
08:00 +18°C° 0 mm 3 mps 727 mmHg 51%
09:00 +19°C° 0 mm 3 mps 727 mmHg 47%
10:00 +21°C° 0 mm 3 mps 727 mmHg 44%
11:00 +22°C° 0 mm 3 mps 726 mmHg 40%
12:00 +24°C° 0 mm 3 mps 725 mmHg 39%
13:00 +24°C° 0 mm 3 mps 725 mmHg 38%
14:00 +25°C° 0 mm 4 mps 724 mmHg 37%
15:00 +23°C° 0 mm 4 mps 724 mmHg 41%
16:00 +21°C° 0 mm 3 mps 724 mmHg 45%
17:00 +20°C° 0 mm 3 mps 723 mmHg 50%
18:00 +19°C° 0 mm 3 mps 724 mmHg 54%
19:00 +17°C° 0 mm 2 mps 724 mmHg 59%
20:00 +16°C° 0 mm 1 mps 725 mmHg 63%
21:00 +16°C° 0 mm 1 mps 725 mmHg 67%
22:00 +15°C° 0 mm 2 mps 725 mmHg 71%
23:00 +15°C° 0 mm 2 mps 725 mmHg 75%

7 March, Sunday

Time Temperature Precipitation Wind Pressure Humidity
00:00 +14°C° 0 mm 2 mps 725 mmHg 77%
01:00 +14°C° 0 mm 1 mps 725 mmHg 79%
02:00 +14°C° 0 mm 1 mps 725 mmHg 81%
03:00 +14°C° 0 mm 1 mps 725 mmHg 84%
04:00 +14°C° 0 mm 1 mps 725 mmHg 86%
05:00 +13°C° 0 mm 1 mps 725 mmHg 88%
06:00 +14°C° 0 mm 1 mps 725 mmHg 86%
07:00 +15°C° 0 mm 1 mps 726 mmHg 83%
08:00 +16°C° 0 mm 2 mps 726 mmHg 80%
09:00 +16°C° 0 mm 2 mps 726 mmHg 78%
10:00 +17°C° 0 mm 2 mps 726 mmHg 76%
11:00 +17°C° 0 mm 2 mps 726 mmHg 74%
12:00 +18°C° 0 mm 2 mps 725 mmHg 73%
13:00 +18°C° 0 mm 2 mps 725 mmHg 72%
14:00 +19°C° 0 mm 2 mps 724 mmHg 71%
15:00 +18°C° 0.1 mm 2 mps 724 mmHg 76%
16:00 +17°C° 0.1 mm 2 mps 725 mmHg 80%
17:00 +16°C° 0.1 mm 2 mps 725 mmHg 85%
18:00 +16°C° 0.2 mm 2 mps 726 mmHg 87%
19:00 +16°C° 0.2 mm 1 mps 726 mmHg 90%
20:00 +16°C° 0.2 mm 1 mps 727 mmHg 92%
21:00 +16°C° 0.1 mm 1 mps 727 mmHg 93%
22:00 +16°C° 0.1 mm 1 mps 727 mmHg 93%
23:00 +14°C° 0.1 mm 0 mps 728 mmHg 94%

8 March, Monday

Time Temperature Precipitation Wind Pressure Humidity
00:00 +14°C° 0 mm 0 mps 727 mmHg 94%
01:00 +14°C° 0 mm 0 mps 727 mmHg 94%
02:00 +14°C° 0 mm 0 mps 727 mmHg 94%
03:00 +14°C° 0 mm 0 mps 727 mmHg 94%
04:00 +14°C° 0 mm 0 mps 727 mmHg 94%
05:00 +14°C° 0 mm 0 mps 727 mmHg 94%
06:00 +16°C° 0 mm 1 mps 727 mmHg 91%
07:00 +16°C° 0 mm 1 mps 728 mmHg 88%
08:00 +18°C° 0 mm 1 mps 728 mmHg 86%
09:00 +19°C° 0 mm 1 mps 728 mmHg 84%
10:00 +18°C° 0 mm 2 mps 728 mmHg 81%
11:00 +19°C° 0 mm 2 mps 728 mmHg 79%
12:00 +20°C° 0 mm 2 mps 727 mmHg 77%
13:00 +20°C° 0 mm 2 mps 726 mmHg 75%
14:00 +21°C° 0 mm 2 mps 726 mmHg 73%
15:00 +21°C° 0 mm 2 mps 725 mmHg 73%
16:00 +21°C° 0 mm 2 mps 725 mmHg 73%
17:00 +21°C° 0 mm 3 mps 725 mmHg 74%
18:00 +20°C° 0 mm 2 mps 726 mmHg 78%
19:00 +19°C° 0 mm 2 mps 727 mmHg 81%
20:00 +20°C° 0 mm 1 mps 727 mmHg 85%
21:00 +18°C° 0 mm 2 mps 727 mmHg 86%
22:00 +18°C° 0 mm 2 mps 727 mmHg 86%
23:00 +18°C° 0 mm 2 mps 727 mmHg 87%
Show more